This is the latest recevied weather packets stored in our database for station/object MKSRDG. If no packets are shown the sender has not sent any weather packets the latest 10 day(s).
| Time | Temp. | Humidity | Pressure | Rain* | Wind** | Luminosity | Snow |
|---|---|---|---|---|---|---|---|
| 1777576199 | 16.11° C | 69% | 1017.7 hPa | 0 mm | - | 835 W/m² | - |
| 1777575299 | 16.11° C | 67% | 1017.8 hPa | 0 mm | - | 717 W/m² | - |
| 1777574399 | 16.11° C | 69% | 1017.8 hPa | 0 mm | - | 740 W/m² | - |
| 1777573500 | 15.56° C | 72% | 1017.8 hPa | 0 mm | - | 670 W/m² | - |
| 1777572600 | 15.56° C | 69% | 1017.9 hPa | 0 mm | - | 619 W/m² | - |
| 1777571700 | 15° C | 75% | 1018 hPa | 0 mm | - | 663 W/m² | - |
| 1777570800 | 14.44° C | 73% | 1017.9 hPa | 0 mm | - | 652 W/m² | - |
| 1777569900 | 14.44° C | 71% | 1018 hPa | 0 mm | - | 664 W/m² | - |
| 1777569000 | 13.33° C | 73% | 1018.2 hPa | 0 mm | - | 598 W/m² | - |
| 1777568100 | 12.78° C | 75% | 1018.3 hPa | 0 mm | - | 534 W/m² | - |
| 1777567200 | 12.22° C | 75% | 1018.5 hPa | 0 mm | - | 461 W/m² | - |
| 1777566300 | 11.67° C | 77% | 1018.6 hPa | 0 mm | - | 397 W/m² | - |
| 1777565400 | 11.11° C | 78% | 1018.7 hPa | 0 mm | - | 346 W/m² | - |
| 1777564500 | 11.11° C | 78% | 1018.7 hPa | 0 mm | - | 436 W/m² | - |
| 1777563600 | 10° C | 82% | 1018.7 hPa | 0 mm | - | 318 W/m² | - |
| 1777562700 | 9.44° C | 80% | 1018.7 hPa | 0 mm | - | 195 W/m² | - |
| 1777561800 | 9.44° C | 82% | 1018.8 hPa | 0 mm | - | 195 W/m² | - |
| 1777560900 | 9.44° C | 84% | 1018.8 hPa | 0 mm | - | 176 W/m² | - |
| 1777560000 | 9.44° C | 82% | 1018.7 hPa | 0 mm | - | 113 W/m² | - |
| 1777559100 | 9.44° C | 80% | 1018.6 hPa | 0 mm | - | 90 W/m² | - |
| 1777558200 | 10° C | 80% | 1018.4 hPa | 0 mm | - | 70 W/m² | - |
| 1777557300 | 9.44° C | 79% | 1018.3 hPa | 0 mm | - | 56 W/m² | - |
| 1777556400 | 9.44° C | 79% | 1018.3 hPa | 0 mm | - | 44 W/m² | - |
| 1777555500 | 10° C | 77% | 1018.2 hPa | 0 mm | - | 25 W/m² | - |
| 1777554600 | 10° C | 75% | 1018.2 hPa | 0 mm | - | 9 W/m² | - |
* Rain latest hour (hover to see other rain measurements)
** Current wind speed in m/s (hover to see current wind gust speed)